When you browse on this site, cookies collect data to enhance your experience and personalize the content and advertising you see.
Visit our Privacy Policy to learn more. By continuing to use the site, you agree to this use of cookies and data.
  • în România
  • Lista ţărilor
  • Pe 7 zile
  • Temperatura apei
  • Hartă satelitară
  • Meteo pe hartă
  • Widget-uri
  • user-avatar
    Intrare

    Meteo pe oră la Seondha

    Astăzi, 18 Iulie, Joi

    Timp Temperatura Precipitaţii Vânt Presiune Umiditate
    00:00 +35°C° 0.7 mm 2 m/s 737 mmHg 53%
    01:00 +34°C° 0.7 mm 3 m/s 737 mmHg 57%
    02:00 +33°C° 0.7 mm 3 m/s 737 mmHg 61%
    03:00 +32°C° 0.3 mm 2 m/s 737 mmHg 61%
    04:00 +32°C° 0.3 mm 2 m/s 737 mmHg 62%
    05:00 +30°C° 0 mm 1 m/s 737 mmHg 75%
    06:00 +31°C° 0.8 mm 1 m/s 738 mmHg 70%
    07:00 +32°C° 0.8 mm 1 m/s 738 mmHg 66%
    08:00 +33°C° 0.8 mm 1 m/s 738 mmHg 61%
    09:00 +36°C° 0 mm 2 m/s 738 mmHg 54%
    10:00 +38°C° 0 mm 3 m/s 738 mmHg 46%
    11:00 +39°C° 0 mm 3 m/s 738 mmHg 39%
    12:00 +39°C° 0 mm 3 m/s 737 mmHg 39%
    13:00 +39°C° 0 mm 3 m/s 737 mmHg 39%
    14:00 +39°C° 0 mm 3 m/s 736 mmHg 39%
    15:00 +40°C° 0 mm 2 m/s 736 mmHg 38%
    16:00 +40°C° 0 mm 2 m/s 736 mmHg 37%
    17:00 +40°C° 0 mm 2 m/s 735 mmHg 36%
    18:00 +39°C° 0 mm 2 m/s 735 mmHg 38%
    19:00 +39°C° 0 mm 1 m/s 736 mmHg 40%
    20:00 +37°C° 0 mm 1 m/s 736 mmHg 42%
    21:00 +37°C° 0 mm 1 m/s 736 mmHg 43%
    22:00 +36°C° 0 mm 1 m/s 736 mmHg 44%
    23:00 +36°C° 0 mm 1 m/s 736 mmHg 45%

    Mâine, 19 Iulie, Vineri

    Timp Temperatura Precipitaţii Vânt Presiune Umiditate
    00:00 +35°C° 0 mm 1 m/s 736 mmHg 46%
    01:00 +35°C° 0 mm 1 m/s 736 mmHg 47%
    02:00 +35°C° 0 mm 1 m/s 735 mmHg 48%
    03:00 +35°C° 0 mm 1 m/s 736 mmHg 49%
    04:00 +34°C° 0 mm 1 m/s 736 mmHg 50%
    05:00 +34°C° 0 mm 1 m/s 736 mmHg 51%
    06:00 +35°C° 0 mm 1 m/s 737 mmHg 50%
    07:00 +37°C° 0 mm 2 m/s 737 mmHg 48%
    08:00 +38°C° 0 mm 2 m/s 738 mmHg 46%
    09:00 +39°C° 0 mm 2 m/s 738 mmHg 43%
    10:00 +40°C° 0 mm 2 m/s 738 mmHg 40%
    11:00 +41°C° 0 mm 2 m/s 738 mmHg 37%
    12:00 +41°C° 0 mm 2 m/s 737 mmHg 37%
    13:00 +41°C° 0 mm 2 m/s 736 mmHg 36%
    14:00 +40°C° 0 mm 2 m/s 736 mmHg 36%
    15:00 +41°C° 0.1 mm 2 m/s 736 mmHg 36%
    16:00 +41°C° 0.1 mm 2 m/s 736 mmHg 36%
    17:00 +41°C° 0.1 mm 2 m/s 735 mmHg 36%
    18:00 +40°C° 0 mm 2 m/s 736 mmHg 39%
    19:00 +39°C° 0 mm 2 m/s 736 mmHg 41%
    20:00 +39°C° 0 mm 2 m/s 736 mmHg 43%
    21:00 +37°C° 0 mm 1 m/s 736 mmHg 44%
    22:00 +37°C° 0 mm 1 m/s 736 mmHg 45%
    23:00 +37°C° 0 mm 1 m/s 736 mmHg 46%

    Poimâine, 20 Iulie, Sâmbătă

    Timp Temperatura Precipitaţii Vânt Presiune Umiditate
    00:00 +36°C° 0 mm 1 m/s 736 mmHg 48%
    01:00 +36°C° 0 mm 1 m/s 736 mmHg 49%
    02:00 +36°C° 0 mm 2 m/s 736 mmHg 51%
    03:00 +35°C° 0 mm 1 m/s 736 mmHg 51%
    04:00 +35°C° 0 mm 1 m/s 736 mmHg 52%
    05:00 +35°C° 0 mm 1 m/s 736 mmHg 52%
    06:00 +36°C° 0 mm 1 m/s 737 mmHg 49%
    07:00 +37°C° 0 mm 1 m/s 737 mmHg 45%
    08:00 +36°C° 0 mm 0 m/s 738 mmHg 41%
    09:00 +40°C° 0 mm 1 m/s 738 mmHg 38%
    10:00 +42°C° 0 mm 1 m/s 737 mmHg 34%
    11:00 +43°C° 0 mm 1 m/s 737 mmHg 31%
    12:00 +43°C° 0 mm 1 m/s 737 mmHg 31%
    13:00 +43°C° 0 mm 1 m/s 736 mmHg 31%
    14:00 +42°C° 0 mm 1 m/s 736 mmHg 31%
    15:00 +42°C° 0 mm 1 m/s 735 mmHg 32%
    16:00 +42°C° 0 mm 2 m/s 735 mmHg 32%
    17:00 +42°C° 0 mm 2 m/s 735 mmHg 32%
    18:00 +42°C° 0 mm 2 m/s 735 mmHg 34%
    19:00 +41°C° 0 mm 2 m/s 735 mmHg 36%
    20:00 +40°C° 0 mm 2 m/s 736 mmHg 38%
    21:00 +40°C° 0 mm 2 m/s 736 mmHg 39%
    22:00 +39°C° 0 mm 2 m/s 736 mmHg 40%
    23:00 +39°C° 0 mm 2 m/s 736 mmHg 42%

    21 Iulie, Duminică

    Timp Temperatura Precipitaţii Vânt Presiune Umiditate
    00:00 +39°C° 0 mm 2 m/s 735 mmHg 43%
    01:00 +38°C° 0 mm 2 m/s 735 mmHg 44%
    02:00 +38°C° 0 mm 2 m/s 735 mmHg 45%
    03:00 +37°C° 0 mm 2 m/s 735 mmHg 46%
    04:00 +37°C° 0 mm 2 m/s 735 mmHg 47%
    05:00 +37°C° 0 mm 2 m/s 735 mmHg 47%
    06:00 +38°C° 0 mm 2 m/s 735 mmHg 45%
    07:00 +39°C° 0 mm 2 m/s 736 mmHg 42%
    08:00 +40°C° 0 mm 1 m/s 736 mmHg 39%
    09:00 +41°C° 0 mm 1 m/s 736 mmHg 36%
    10:00 +43°C° 0 mm 1 m/s 736 mmHg 32%
    11:00 +44°C° 0 mm 1 m/s 736 mmHg 29%
    12:00 +44°C° 0 mm 1 m/s 735 mmHg 29%
    13:00 +44°C° 0 mm 1 m/s 735 mmHg 29%
    14:00 +44°C° 0 mm 1 m/s 734 mmHg 28%
    15:00 +43°C° 0 mm 2 m/s 734 mmHg 29%
    16:00 +43°C° 0 mm 2 m/s 734 mmHg 29%
    17:00 +44°C° 0 mm 3 m/s 733 mmHg 30%
    18:00 +42°C° 0 mm 2 m/s 734 mmHg 32%
    19:00 +42°C° 0 mm 2 m/s 734 mmHg 33%
    20:00 +41°C° 0 mm 1 m/s 734 mmHg 35%
    21:00 +41°C° 0 mm 1 m/s 734 mmHg 37%
    22:00 +40°C° 0 mm 1 m/s 734 mmHg 38%
    23:00 +39°C° 0 mm 1 m/s 734 mmHg 39%

    22 Iulie, Luni

    Timp Temperatura Precipitaţii Vânt Presiune Umiditate
    00:00 +39°C° 0 mm 1 m/s 734 mmHg 40%
    01:00 +39°C° 0 mm 1 m/s 734 mmHg 40%
    02:00 +39°C° 0 mm 1 m/s 733 mmHg 41%
    03:00 +37°C° 0.1 mm 1 m/s 733 mmHg 42%
    04:00 +37°C° 0.1 mm 1 m/s 734 mmHg 43%
    05:00 +38°C° 0.1 mm 2 m/s 734 mmHg 43%
    06:00 +38°C° 0 mm 2 m/s 734 mmHg 42%
    07:00 +39°C° 0 mm 2 m/s 734 mmHg 40%
    08:00 +40°C° 0 mm 3 m/s 735 mmHg 38%
    09:00 +42°C° 0 mm 4 m/s 735 mmHg 36%
    10:00 +43°C° 0 mm 4 m/s 735 mmHg 34%
    11:00 +45°C° 0 mm 5 m/s 735 mmHg 31%
    12:00 +45°C° 0 mm 5 m/s 734 mmHg 30%
    13:00 +46°C° 0 mm 5 m/s 733 mmHg 28%
    14:00 +47°C° 0 mm 4 m/s 733 mmHg 26%
    15:00 +47°C° 0 mm 4 m/s 733 mmHg 26%
    16:00 +45°C° 0 mm 4 m/s 732 mmHg 26%
    17:00 +45°C° 0 mm 4 m/s 732 mmHg 26%
    18:00 +44°C° 0 mm 3 m/s 732 mmHg 28%
    19:00 +43°C° 0 mm 2 m/s 733 mmHg 29%
    20:00 +42°C° 0 mm 1 m/s 733 mmHg 31%
    21:00 +41°C° 0 mm 2 m/s 733 mmHg 32%
    22:00 +41°C° 0 mm 2 m/s 733 mmHg 33%
    23:00 +40°C° 0 mm 2 m/s 733 mmHg 34%

    23 Iulie, Marţi

    Timp Temperatura Precipitaţii Vânt Presiune Umiditate
    00:00 +40°C° 0 mm 2 m/s 733 mmHg 35%
    01:00 +39°C° 0 mm 2 m/s 732 mmHg 36%
    02:00 +39°C° 0 mm 2 m/s 732 mmHg 38%
    03:00 +38°C° 0 mm 2 m/s 732 mmHg 38%
    04:00 +38°C° 0 mm 2 m/s 732 mmHg 39%
    05:00 +38°C° 0 mm 3 m/s 732 mmHg 40%
    06:00 +39°C° 0 mm 3 m/s 733 mmHg 37%
    07:00 +40°C° 0 mm 3 m/s 733 mmHg 34%
    08:00 +43°C° 0 mm 4 m/s 734 mmHg 31%
    09:00 +44°C° 0 mm 4 m/s 734 mmHg 29%
    10:00 +45°C° 0 mm 4 m/s 734 mmHg 27%
    11:00 +47°C° 0 mm 4 m/s 733 mmHg 24%
    12:00 +47°C° 0 mm 4 m/s 733 mmHg 25%
    13:00 +46°C° 0 mm 3 m/s 732 mmHg 25%
    14:00 +46°C° 0 mm 2 m/s 732 mmHg 25%
    15:00 +45°C° 0 mm 2 m/s 731 mmHg 27%
    16:00 +45°C° 0 mm 2 m/s 731 mmHg 28%
    17:00 +43°C° 0 mm 2 m/s 731 mmHg 30%
    18:00 +42°C° 0.2 mm 2 m/s 731 mmHg 31%
    19:00 +42°C° 0.2 mm 1 m/s 732 mmHg 33%
    20:00 +41°C° 0.2 mm 1 m/s 732 mmHg 34%
    21:00 +40°C° 0.3 mm 1 m/s 733 mmHg 36%
    22:00 +40°C° 0.3 mm 1 m/s 733 mmHg 38%
    23:00 +39°C° 0.3 mm 1 m/s 733 mmHg 39%
    Arată mai mult